GW0658 Weather Reports


Display with metric or nautical units.
time (UTC)temp
F
wind
direction
speed
MPH
gust
MPH
rain 1hr
in
rain 24hr
in
rain mn
in
humidity
%
barometer
mb
20260904212023 60 219 1.0 10.0 0.00 0.00 0.00 77 1016.6
20260904211547 61 189 3.0 10.0 0.00 0.00 0.00 75 1016.6
20260904211023 61 309 2.0 8.0 0.00 0.00 0.00 74 1016.5
20260904210523 62 215 3.0 8.0 0.00 0.00 0.00 76 1016.5
20260904210055 61 201 5.0 9.0 0.00 0.00 0.00 78 1016.4
20260904205529 61 198 4.0 9.0 0.00 0.00 0.00 80 1016.5
20260904205027 60 220 3.0 9.0 0.00 0.00 0.00 80 1016.5
20260904204540 60 206 3.0 9.0 0.00 0.00 0.00 81 1016.5
20260904204022 60 200 4.0 9.0 0.00 0.00 0.00 81 1016.5
20260904203520 59 207 2.0 7.0 0.00 0.00 0.00 84 1016.4
20260904203044 59 10 3.0 6.0 0.00 0.00 0.00 85 1016.5
20260904202521 58 194 2.0 8.0 0.00 0.00 0.00 86 1016.5
20260904202021 58 201 2.0 8.0 0.00 0.00 0.00 88 1016.5
20260904201550 58 219 3.0 8.0 0.00 0.00 0.00 88 1016.5
20260904201025 57 205 2.0 6.0 0.00 0.00 0.00 90 1016.4
20260904200521 57 236 2.0 6.0 0.00 0.00 0.00 91 1016.5
20260904200044 57 0 1.0 4.0 0.00 0.00 0.00 92 1016.3
20260904195521 56 200 1.0 5.0 0.00 0.00 0.00 93 1016.5
20260904195020 56 112 2.0 6.0 0.00 0.00 0.00 94 1016.4
20260904194540 55 257 1.0 6.0 0.00 0.00 0.00 95 1016.5
20260904194026 55 203 1.0 4.0 0.00 0.00 0.00 96 1016.5
20260904193523 54 215 2.0 5.0 0.00 0.00 0.00 96 1016.5
20260904193042 54 187 1.0 6.0 0.00 0.00 0.00 96 1016.5
20260904192527 54 327 2.0 6.0 0.00 0.00 0.00 96 1016.6
20260904192025 54 206 1.0 4.0 0.00 0.00 0.00 96 1016.7
20260904191542 54 221 0.0 5.0 0.00 0.00 0.00 96 1016.6
20260904191025 53 9 1.0 5.0 0.00 0.00 0.00 96 1016.6
20260904190522 53 0 1.0 5.0 0.00 0.00 0.00 96 1016.6
20260904190041 53 0 1.0 5.0 0.00 0.00 0.00 96 1016.8
20260904185519 53 0 1.0 4.0 0.00 0.00 0.00 96 1016.8
20260904185019 53 274 1.0 4.0 0.00 0.00 0.00 96 1016.7
20260904184545 53 273 1.0 4.0 0.00 0.00 0.00 96 1016.7
20260904184026 52 0 0.0 2.0 0.00 0.00 0.00 96 1016.8
20260904183525 52 0 0.0 5.0 0.00 0.00 0.00 96 1016.8
20260904183041 52 0 0.0 5.0 0.00 0.00 0.00 96 1016.8
20260904182525 52 0 0.0 0.0 0.00 0.00 0.00 96 1016.8
20260904182030 52 0 0.0 0.0 0.00 0.00 0.00 96 1016.8
20260904181541 52 0 0.0 3.0 0.00 0.00 0.00 96 1016.6
20260904181025 52 0 0.0 4.0 0.00 0.00 0.00 96 1016.7
20260904180521 52 44 0.0 4.0 0.00 0.00 0.00 96 1016.6
20260904180058 52 0 1.0 3.0 0.00 0.00 0.00 96 1016.6
20260904175521 52 223 0.0 3.0 0.00 0.00 0.00 96 1016.6
20260904175021 52 213 1.0 3.0 0.00 0.00 0.00 96 1016.6
20260904174546 52 219 1.0 3.0 0.00 0.00 0.00 96 1016.6
20260904174019 52 49 0.0 2.0 0.00 0.00 0.00 96 1016.6
20260904173520 52 0 0.0 2.0 0.00 0.00 0.00 96 1016.6
20260904173112 52 0 0.0 0.0 0.00 0.00 0.00 96 1016.5
20260904172529 51 0 0.0 0.0 0.00 0.00 0.00 96 1016.4
20260904172022 51 0 0.0 3.0 0.00 0.00 0.00 96 1016.3
20260904171553 51 0 0.0 3.0 0.00 0.00 0.00 96 1016.2
20260904171022 51 198 1.0 3.0 0.00 0.00 0.00 95 1016.2
20260904170522 52 192 1.0 3.0 0.00 0.00 0.00 95 1016.1
20260904170046 52 0 1.0 3.0 0.00 0.00 0.00 95 1016.0
20260904165520 52 211 1.0 3.0 0.00 0.00 0.00 95 1016.0
20260904165020 52 0 0.0 2.0 0.00 0.00 0.00 96 1015.9
20260904164541 52 0 0.0 3.0 0.00 0.00 0.00 96 1015.8
20260904164024 52 0 0.0 3.0 0.00 0.00 0.00 96 1015.8
20260904163529 52 202 1.0 3.0 0.00 0.00 0.00 96 1015.7
20260904163048 52 180 0.0 3.0 0.00 0.00 0.00 96 1015.6
20260904162524 52 0 0.0 3.0 0.00 0.00 0.00 95 1015.5
20260904162022 52 208 1.0 3.0 0.00 0.00 0.00 95 1015.5
20260904161542 52 0 0.0 0.0 0.00 0.00 0.00 95 1015.4
20260904161022 52 0 0.0 2.0 0.00 0.00 0.00 95 1015.5
20260904160528 52 0 0.0 2.0 0.00 0.00 0.00 95 1015.5
20260904160042 52 0 0.0 0.0 0.00 0.00 0.00 95 1015.5
20260904155520 52 0 0.0 0.0 0.00 0.00 0.00 95 1015.5
20260904155025 52 0 0.0 0.0 0.00 0.00 0.00 95 1015.5
20260904154541 52 0 0.0 2.0 0.00 0.00 0.00 95 1015.5
20260904154024 52 0 0.0 2.0 0.00 0.00 0.00 95 1015.4
20260904153526 52 0 0.0 2.0 0.00 0.00 0.00 95 1015.5
20260904153056 52 0 0.0 2.0 0.00 0.00 0.00 95 1015.4
20260904152522 52 0 0.0 0.0 0.00 0.00 0.00 95 1015.5
20260904152023 52 0 0.0 0.0 0.00 0.00 0.00 95 1015.5
20260904151546 52 0 0.0 3.0 0.00 0.00 0.00 95 1015.5
20260904151021 52 0 0.0 3.0 0.00 0.00 0.00 95 1015.4
20260904150524 52 204 1.0 5.0 0.00 0.00 0.00 95 1015.4
20260904150049 52 0 0.0 5.0 0.00 0.00 0.00 95 1015.4
20260904145524 52 184 2.0 5.0 0.00 0.00 0.00 95 1015.3
20260904145024 52 0 0.0 2.0 0.00 0.00 0.00 95 1015.3
20260904144553 52 242 0.0 3.0 0.00 0.00 0.00 95 1015.2
20260904144023 52 0 0.0 3.0 0.00 0.00 0.00 95 1015.1
20260904143526 52 198 1.0 3.0 0.00 0.00 0.00 95 1015.1
20260904143047 52 0 0.0 3.0 0.00 0.00 0.00 95 1015.2
20260904142524 52 0 0.0 3.0 0.00 0.00 0.00 95 1015.0
20260904142023 52 0 0.0 3.0 0.00 0.00 0.00 95 1015.0
20260904141543 52 0 0.0 3.0 0.00 0.00 0.00 95 1015.0
20260904141022 52 198 1.0 3.0 0.00 0.00 0.00 95 1015.1
20260904140521 52 0 0.0 3.0 0.00 0.00 0.00 94 1014.9
20260904140053 52 198 1.0 3.0 0.00 0.00 0.00 95 1014.7
20260904135524 52 198 0.0 3.0 0.00 0.00 0.00 94 1014.7
20260904135024 52 159 0.0 3.0 0.00 0.00 0.00 94 1014.6
20260904134542 52 196 1.0 3.0 0.00 0.00 0.00 94 1014.7
20260904134024 52 190 0.0 3.0 0.00 0.00 0.00 94 1014.6
20260904133522 52 203 0.0 3.0 0.00 0.00 0.00 94 1014.6
20260904133045 52 0 0.0 2.0 0.00 0.00 0.00 94 1014.6
20260904132522 52 0 0.0 2.0 0.00 0.00 0.00 93 1014.6
20260904132021 52 0 0.0 2.0 0.00 0.00 0.00 94 1014.7
20260904131540 53 0 0.0 3.0 0.00 0.00 0.00 93 1014.5
20260904131028 53 0 0.0 3.0 0.00 0.00 0.00 93 1014.5
20260904130521 53 0 0.0 2.0 0.00 0.00 0.00 93 1014.5
20260904130041 53 158 0.0 2.0 0.00 0.00 0.00 93 1014.4
20260904125527 53 0 0.0 2.0 0.00 0.00 0.00 93 1014.4
20260904125024 53 276 0.0 2.0 0.00 0.00 0.00 93 1014.3
20260904124556 53 0 0.0 2.0 0.00 0.00 0.00 92 1014.3
20260904124023 53 302 0.0 2.0 0.00 0.00 0.00 93 1014.2
20260904123522 53 344 0.0 5.0 0.00 0.00 0.00 92 1014.2
20260904123043 53 0 1.0 5.0 0.00 0.00 0.00 92 1014.2
20260904122521 53 0 0.0 2.0 0.00 0.00 0.00 92 1014.2
20260904122021 53 0 0.0 2.0 0.00 0.00 0.00 92 1014.2
20260904121540 53 177 0.0 2.0 0.00 0.00 0.00 92 1014.2
20260904121024 53 0 0.0 2.0 0.00 0.00 0.00 91 1014.3
20260904120524 53 0 0.0 2.0 0.00 0.00 0.00 91 1014.2
20260904120046 53 177 0.0 2.0 0.00 0.00 0.00 91 1014.2
20260904115524 53 0 0.0 1.0 0.00 0.00 0.00 91 1014.1
20260904115028 53 0 0.0 2.0 0.00 0.00 0.00 91 1014.1
20260904114547 53 0 0.0 3.0 0.00 0.00 0.00 90 1014.1
20260904114022 53 0 0.0 3.0 0.00 0.00 0.00 91 1014.1
20260904113521 53 204 1.0 3.0 0.00 0.00 0.00 90 1014.1
20260904113048 53 0 0.0 2.0 0.00 0.00 0.00 90 1014.1
20260904112521 53 123 0.0 2.0 0.00 0.00 0.00 90 1013.9
20260904112025 53 0 0.0 2.0 0.00 0.00 0.00 90 1014.0
20260904111542 53 0 0.0 0.0 0.00 0.00 0.00 90 1013.9
20260904111019 53 0 0.0 0.0 0.00 0.00 0.00 90 1014.0
20260904110525 53 0 0.0 0.0 0.00 0.00 0.00 90 1013.9
20260904110135 53 0 0.0 0.0 0.00 0.00 0.00 90 1013.9
20260904105523 53 0 0.0 0.0 0.00 0.00 0.00 90 1013.9
20260904105022 53 0 0.0 0.0 0.00 0.00 0.00 90 1013.9
20260904104547 53 0 0.0 0.0 0.00 0.00 0.00 90 1013.9
20260904104021 53 0 0.0 0.0 0.00 0.00 0.00 90 1014.0
20260904103524 53 0 0.0 0.0 0.00 0.00 0.00 91 1014.0
20260904103043 53 0 0.0 0.0 0.00 0.00 0.00 91 1014.0
20260904102519 53 0 0.0 0.0 0.00 0.00 0.00 91 1014.0
20260904102019 53 0 0.0 0.0 0.00 0.00 0.00 91 1013.9
20260904101540 53 0 0.0 0.0 0.00 0.00 0.00 91 1014.0
20260904101023 53 0 0.0 0.0 0.00 0.00 0.00 91 1013.9
20260904100528 53 0 0.0 0.0 0.00 0.00 0.00 91 1013.9
20260904100046 53 0 0.0 0.0 0.00 0.00 0.00 91 1014.0
20260904095524 53 0 0.0 0.0 0.00 0.00 0.00 90 1014.0
20260904095022 53 0 0.0 0.0 0.00 0.00 0.00 91 1014.0
20260904094549 53 0 0.0 0.0 0.00 0.00 0.00 91 1014.0
20260904094021 54 0 0.0 0.0 0.00 0.00 0.00 91 1013.9
20260904093521 54 0 0.0 0.0 0.00 0.00 0.00 91 1014.0
20260904093040 54 0 0.0 0.0 0.00 0.00 0.00 91 1014.0
20260904092520 54 0 0.0 0.0 0.00 0.00 0.00 91 1014.0
20260904092019 54 0 0.0 0.0 0.00 0.00 0.00 91 1014.0
20260904091540 53 0 0.0 0.0 0.00 0.00 0.00 91 1014.1
20260904091023 53 0 0.0 0.0 0.00 0.00 0.00 91 1014.1
20260904090522 53 0 0.0 0.0 0.00 0.00 0.00 91 1014.1
20260904090046 53 0 0.0 0.0 0.00 0.00 0.00 91 1014.2
20260904085521 53 0 0.0 0.0 0.00 0.00 0.00 90 1014.1
20260904085026 53 0 0.0 0.0 0.00 0.00 0.00 91 1014.2
20260904084543 53 0 0.0 0.0 0.00 0.00 0.00 91 1014.3
20260904084023 53 0 0.0 0.0 0.00 0.00 0.00 91 1014.2
20260904083520 53 0 0.0 0.0 0.00 0.00 0.00 91 1014.2
20260904083040 53 0 0.0 0.0 0.00 0.00 0.00 91 1014.2
20260904082524 54 0 0.0 0.0 0.00 0.00 0.00 91 1014.2
20260904082023 53 0 0.0 0.0 0.00 0.00 0.00 91 1014.2
20260904081606 53 0 0.0 0.0 0.00 0.00 0.00 91 1014.2
20260904081023 53 0 0.0 0.0 0.00 0.00 0.00 91 1014.2
20260904080521 53 0 0.0 0.0 0.00 0.00 0.00 92 1014.3
20260904080043 53 0 0.0 0.0 0.00 0.00 0.00 92 1014.3
20260904075520 53 0 0.0 0.0 0.00 0.00 0.00 91 1014.3
20260904075019 53 0 0.0 0.0 0.00 0.00 0.00 92 1014.3
20260904074601 53 0 0.0 0.0 0.00 0.00 0.00 92 1014.4
20260904074019 53 0 0.0 1.0 0.00 0.00 0.00 92 1014.4
20260904073520 53 0 0.0 1.0 0.00 0.00 0.00 92 1014.4
20260904073059 53 226 0.0 3.0 0.00 0.00 0.00 92 1014.4
20260904072523 53 226 0.0 3.0 0.00 0.00 0.00 92 1014.4
20260904072022 53 226 1.0 5.0 0.00 0.00 0.00 92 1014.4
20260904071547 53 234 1.0 5.0 0.00 0.00 0.00 91 1014.4
20260904071025 53 227 2.0 5.0 0.00 0.00 0.00 90 1014.4
20260904070526 54 225 2.0 4.0 0.00 0.00 0.00 89 1014.4
20260904070051 54 230 1.0 3.0 0.00 0.00 0.00 88 1014.3
20260904065519 54 0 0.0 0.0 0.00 0.00 0.00 87 1014.3
20260904065021 55 0 0.0 0.0 0.00 0.00 0.00 86 1014.2
20260904064542 54 0 0.0 0.0 0.00 0.00 0.00 85 1014.2
20260904064020 54 0 0.0 0.0 0.00 0.00 0.00 86 1014.0
20260904063519 54 0 0.0 0.0 0.00 0.00 0.00 86 1014.0
20260904063040 54 0 0.0 0.0 0.00 0.00 0.00 87 1014.0
20260904062523 54 0 0.0 0.0 0.00 0.00 0.00 88 1014.2
20260904062021 54 0 0.0 0.0 0.00 0.00 0.00 88 1014.1
20260904061542 54 0 0.0 0.0 0.00 0.00 0.00 88 1014.1
20260904061024 54 0 0.0 0.0 0.00 0.00 0.00 89 1014.2
20260904060521 54 0 0.0 0.0 0.00 0.00 0.00 89 1014.2
20260904060041 54 0 0.0 0.0 0.00 0.00 0.00 89 1014.2
20260904055519 54 0 0.0 0.0 0.00 0.00 0.00 88 1014.3
20260904055021 54 0 0.0 0.0 0.00 0.00 0.00 88 1014.4
20260904054540 55 0 0.0 0.0 0.00 0.00 0.00 88 1014.4
20260904054023 55 0 0.0 0.0 0.00 0.00 0.00 88 1014.5
20260904053522 55 0 0.0 0.0 0.00 0.00 0.00 87 1014.6
20260904053046 55 0 0.0 0.0 0.00 0.00 0.00 87 1014.6
20260904052523 55 0 0.0 0.0 0.00 0.00 0.00 87 1014.7
20260904052022 55 0 0.0 0.0 0.00 0.00 0.00 86 1014.7
20260904051542 55 0 0.0 0.0 0.00 0.00 0.00 86 1014.8
20260904051021 55 0 0.0 0.0 0.00 0.00 0.00 86 1014.8
20260904050522 55 0 0.0 0.0 0.00 0.00 0.00 86 1014.9
20260904050052 55 0 0.0 0.0 0.00 0.00 0.00 86 1014.9
20260904045524 55 0 0.0 0.0 0.00 0.00 0.00 86 1015.0
20260904045027 55 0 0.0 0.0 0.00 0.00 0.00 86 1014.9
20260904044549 55 0 0.0 0.0 0.00 0.00 0.00 86 1014.9
20260904044029 55 0 0.0 0.0 0.00 0.00 0.00 85 1015.0
20260904043525 55 0 0.0 0.0 0.00 0.00 0.00 85 1015.1
20260904043054 55 0 0.0 0.0 0.00 0.00 0.00 85 1015.1
20260904042528 55 0 0.0 0.0 0.00 0.00 0.00 85 1015.0
20260904042021 55 0 0.0 0.0 0.00 0.00 0.00 85 1015.0
20260904041547 55 0 0.0 2.0 0.00 0.00 0.00 84 1015.1
20260904041025 55 0 0.0 3.0 0.00 0.00 0.00 84 1014.9
20260904040520 55 217 0.0 3.0 0.00 0.00 0.00 84 1015.0
20260904040052 56 217 1.0 3.0 0.00 0.00 0.00 83 1015.0
20260904035523 56 211 0.0 2.0 0.00 0.00 0.00 82 1014.9
20260904035021 56 0 0.0 1.0 0.00 0.00 0.00 82 1014.8
20260904034550 56 0 0.0 1.0 0.00 0.00 0.00 82 1014.8
20260904034022 56 0 0.0 0.0 0.00 0.00 0.00 81 1014.8
20260904033524 56 0 0.0 0.0 0.00 0.00 0.00 81 1014.6
20260904033043 56 0 0.0 0.0 0.00 0.00 0.00 81 1014.6
20260904032523 56 0 0.0 0.0 0.00 0.00 0.00 81 1014.6
20260904032020 56 0 0.0 0.0 0.00 0.00 0.00 81 1014.6
20260904031544 56 0 0.0 0.0 0.00 0.00 0.00 81 1014.6
20260904031019 57 0 0.0 0.0 0.00 0.00 0.00 81 1014.6
20260904030525 56 0 0.0 2.0 0.00 0.00 0.00 81 1014.6
20260904030046 56 0 0.0 2.0 0.00 0.00 0.00 80 1014.6
20260904025523 57 211 1.0 2.0 0.00 0.00 0.00 80 1014.7
20260904025023 57 211 1.0 2.0 0.00 0.00 0.00 80 1014.7
20260904024547 57 211 0.0 2.0 0.00 0.00 0.00 79 1014.7
20260904024021 57 211 1.0 3.0 0.00 0.00 0.00 79 1014.7
20260904023520 57 0 0.0 3.0 0.00 0.00 0.00 79 1014.8
20260904023041 57 217 0.0 3.0 0.00 0.00 0.00 79 1014.8
20260904022520 57 217 1.0 4.0 0.00 0.00 0.00 79 1014.8
20260904022020 57 212 1.0 4.0 0.00 0.00 0.00 79 1014.8
20260904021542 57 211 1.0 6.0 0.00 0.00 0.00 78 1014.8
20260904021025 57 215 3.0 6.0 0.00 0.00 0.00 78 1014.8
20260904020524 57 202 3.0 7.0 0.00 0.00 0.00 77 1014.8
20260904020047 58 232 3.0 7.0 0.00 0.00 0.00 77 1014.9
20260904015521 58 225 3.0 7.0 0.00 0.00 0.00 76 1014.9
20260904015023 58 217 4.0 7.0 0.00 0.00 0.00 75 1014.9
20260904014609 59 227 3.0 6.0 0.00 0.00 0.00 72 1014.9
20260904014024 59 225 1.0 7.0 0.00 0.00 0.00 70 1014.9
20260904013519 59 222 3.0 7.0 0.00 0.00 0.00 69 1014.9
20260904013040 60 238 2.0 5.0 0.00 0.00 0.00 66 1014.9
20260904012521 61 240 1.0 6.0 0.00 0.00 0.00 59 1015.0
20260904012025 61 187 2.0 6.0 0.00 0.00 0.00 58 1015.1
20260904011547 61 208 3.0 7.0 0.00 0.00 0.00 56 1015.1
20260904011024 61 227 3.0 7.0 0.00 0.00 0.00 55 1015.1
20260904010523 62 271 3.0 7.0 0.00 0.00 0.00 53 1015.1
20260904010045 62 228 1.0 7.0 0.00 0.00 0.00 52 1015.1
20260904005519 63 196 3.0 10.0 0.00 0.00 0.00 51 1015.1
20260904005020 63 187 3.0 11.0 0.00 0.00 0.00 50 1015.0
20260904004547 64 205 3.0 11.0 0.00 0.00 0.00 49 1015.1
20260904004025 64 227 4.0 7.0 0.00 0.00 0.00 50 1015.1
20260904003523 65 245 2.0 9.0 0.00 0.00 0.00 49 1015.2
20260904003041 65 149 3.0 9.0 0.00 0.00 0.00 50 1015.2
20260904002520 65 188 3.0 10.0 0.00 0.00 0.00 49 1015.1
20260904002022 65 215 5.0 10.0 0.00 0.00 0.00 50 1015.1
20260904001540 65 208 4.0 9.0 0.00 0.00 0.00 51 1015.1
20260904001020 64 207 3.0 10.0 0.00 0.00 0.00 50 1015.1
20260904000520 65 219 5.0 10.0 0.00 0.00 0.00 50 1015.1
20260904000130 65 217 4.0 8.0 0.00 0.00 0.00 50 1015.1
20260903235525 65 227 3.0 8.0 0.00 0.00 0.00 52 1015.2
20260903235021 64 210 3.0 9.0 0.00 0.00 0.00 53 1015.4
20260903234542 64 222 3.0 9.0 0.00 0.00 0.00 54 1015.4
20260903234019 63 209 2.0 8.0 0.00 0.00 0.00 57 1015.3
20260903233520 63 229 3.0 8.0 0.00 0.00 0.00 56 1015.4
20260903233042 63 197 2.0 10.0 0.00 0.00 0.00 56 1015.4
20260903232525 63 214 3.0 10.0 0.00 0.00 0.00 56 1015.5
20260903232020 63 189 2.0 10.0 0.00 0.00 0.00 57 1015.6
20260903231540 63 225 4.0 10.0 0.00 0.00 0.00 56 1015.7
20260903231020 63 196 3.0 8.0 0.00 0.00 0.00 58 1015.7
20260903230526 63 198 4.0 9.0 0.00 0.00 0.00 58 1015.8
20260903230047 64 212 3.0 9.0 0.00 0.00 0.00 57 1015.8
20260903225523 64 205 4.0 11.0 0.00 0.00 0.00 56 1015.9
20260903225020 64 198 3.0 11.0 0.00 0.00 0.00 58 1016.1
20260903224547 64 242 6.0 11.0 0.00 0.00 0.00 58 1016.1
20260903224023 63 204 4.0 8.0 0.00 0.00 0.00 59 1016.1
20260903223524 64 216 5.0 9.0 0.00 0.00 0.00 59 1016.2
20260903223040 63 225 3.0 9.0 0.00 0.00 0.00 61 1016.2
20260903222522 63 205 4.0 12.0 0.00 0.00 0.00 60 1016.3
20260903222021 63 221 6.0 12.0 0.00 0.00 0.00 60 1016.3
20260903221550 63 226 5.0 13.0 0.00 0.00 0.00 60 1016.4
20260903221021 64 200 5.0 13.0 0.00 0.00 0.00 59 1016.5
20260903220524 63 215 4.0 12.0 0.00 0.00 0.00 59 1016.5
20260903220041 64 225 4.0 10.0 0.00 0.00 0.00 61 1016.3
20260903215521 64 200 5.0 11.0 0.00 0.00 0.00 59 1016.4
20260903215020 65 225 2.0 11.0 0.00 0.00 0.00 59 1016.4
20260903214549 64 235 5.0 11.0 0.00 0.00 0.00 59 1016.4
20260903214019 64 198 3.0 9.0 0.00 0.00 0.00 61 1016.4
20260903213529 64 224 5.0 13.0 0.00 0.00 0.00 61 1016.4
20260903213049 65 209 7.0 13.0 0.00 0.00 0.00 59 1016.3
20260903212521 66 201 2.0 9.0 0.00 0.00 0.00 58 1016.3